Location: UBC Liquid-Mirror Observatory
(49.2876°N, 122.5728°W)
Time: 10:27:04
(UTC-07:00)

Amateur Radio Satellites - All Passes

Search period start: 22 July 2014 09:57
Search period end: 23 July 2014 09:57
Location: UBC Liquid-Mirror Observatory, 49.2876°N, 122.5728°W

Satellite Date Start Highest point End Downlink Frequencies (MHz)
Time Altitude Azimuth
Sapphire 22 Jul 09:58:45 10:03:16 26° 35° (NE) 10:07:45 437.095 MHz 1200 baud AX-25 AFSK
Oscar 11 22 Jul 10:06:00 10:09:13 20° 92° (E) 10:12:25 145.825 FM, Beacon 2401.500 USB
KITSAT 1 22 Jul 10:07:04 10:14:52 49° 321° (NW) 10:22:43 435.175 FM
Saudisat 1A 22 Jul 10:14:07 10:18:27 57° 124° (SE) 10:22:48 436.775 MHz
MaSat-1 22 Jul 10:21:09 10:23:29 13° 261° (W) 10:25:48 437.345 MHz
JAS-2 22 Jul 10:28:59 10:30:40 11° 320° (NW) 10:32:18 435.800 - 435.900 CW/SSB, 435.910 FM
PCSat 22 Jul 10:32:51 10:37:57 39° 43° (NE) 10:43:02 145.825 MHz
Oscar 11 22 Jul 11:41:30 11:45:41 49° 290° (WNW) 11:49:51 145.825 FM, Beacon 2401.500 USB
HO-68 22 Jul 11:41:47 11:48:31 46° 299° (WNW) 11:55:14 435.675 MHz FM
Sapphire 22 Jul 11:41:53 11:47:21 84° 237° (WSW) 11:52:47 437.095 MHz 1200 baud AX-25 AFSK
FUNcube-1 22 Jul 11:42:21 11:46:32 70° 102° (ESE) 11:50:40 145.950 - 145.970 MHz USB
Saudisat 1A 22 Jul 11:54:27 11:58:19 29° 325° (NW) 12:02:13 436.775 MHz
Oscar 16 22 Jul 12:03:38 12:06:29 15° 54° (NE) 12:09:21 437.025 USB, Beacon 2401.1428
KITSAT 1 22 Jul 12:05:55 12:12:25 26° 348° (NNW) 12:18:56 435.175 FM
PCSat 22 Jul 12:16:19 12:21:29 45° 244° (WSW) 12:26:37 145.825 MHz
AO-27 22 Jul 12:27:24 12:29:36 13° 51° (NE) 12:31:49 436.795 MHz FM
Uribyol 2 22 Jul 12:31:03 12:33:37 14° 52° (NE) 12:36:12 436.500 FM
JAS-1B 22 Jul 12:44:20 12:51:06 24° 44° (NE) 12:58:17 435.800 - 435.900 CW/SSB
AO-Echo 22 Jul 12:49:11 12:52:43 18° 56° (NE) 12:56:17 ?
Oscar 19 22 Jul 13:13:08 13:18:02 48° 68° (ENE) 13:22:57 437.125 CW, 437.150 USB
FUNcube-1 22 Jul 13:20:04 13:22:27 15° 301° (WNW) 13:24:49 145.950 - 145.970 MHz USB
Sapphire 22 Jul 13:26:59 13:29:57 15° 256° (WSW) 13:32:55 437.095 MHz 1200 baud AX-25 AFSK
TMSAT-1 22 Jul 13:28:36 13:31:06 14° 52° (NE) 13:33:36 436.925 FM
HO-68 22 Jul 13:31:32 13:34:33 13° 321° (NW) 13:37:34 435.675 MHz FM
Saudisat 1A 22 Jul 13:37:24 13:39:20 13° 348° (NNW) 13:41:15 436.775 MHz
Oscar 16 22 Jul 13:39:58 13:45:05 82° 74° (ENE) 13:50:14 437.025 USB, Beacon 2401.1428
ITAMSAT 1 22 Jul 13:45:58 13:50:56 47° 67° (ENE) 13:55:56 435.822 SSB
Gurwin Techsat 1B 22 Jul 13:46:14 13:50:21 23° 59° (ENE) 13:54:28 435.225 FM
AO-27 22 Jul 14:03:00 14:08:11 65° 71° (ENE) 14:13:23 436.795 MHz FM
KITSAT 1 22 Jul 14:03:59 14:10:45 28° 18° (NNE) 14:17:29 435.175 FM
Uribyol 2 22 Jul 14:07:03 14:12:14 73° 72° (ENE) 14:17:27 436.500 FM
RS-15 22 Jul 14:09:27 14:18:51 34° 107° (ESE) 14:28:05 29.354 - 29.394 USB, Beacon 29.352 USB
AO-7 22 Jul 14:12:48 14:18:52 23° 43° (NE) 14:24:57 29.400 - 29.500 MHz
AO-Echo 22 Jul 14:25:32 14:30:49 86° 255° (WSW) 14:36:12 ?
JAS-1B 22 Jul 14:31:16 14:39:52 70° 67° (ENE) 14:49:37 435.800 - 435.900 CW/SSB
Uosat F 22 Jul 14:40:59 14:43:36 14° 53° (NE) 14:46:13 435.120 FM
Oscar 19 22 Jul 14:53:18 14:57:36 27° 267° (W) 15:01:56 437.125 CW, 437.150 USB
SO-50 22 Jul 15:03:58 15:08:21 56° 124° (SE) 15:12:51 436.795 FM
TMSAT-1 22 Jul 15:04:51 15:10:07 69° 72° (ENE) 15:15:24 436.925 FM
Saudisat 1A 22 Jul 15:18:47 15:20:49 13° 13° (NNE) 15:22:50 436.775 MHz
Oscar 16 22 Jul 15:22:07 15:25:06 16° 272° (W) 15:28:07 437.025 USB, Beacon 2401.1428
Gurwin Techsat 1B 22 Jul 15:24:37 15:29:54 64° 258° (WSW) 15:35:13 435.225 FM
ITAMSAT 1 22 Jul 15:26:10 15:30:39 28° 266° (W) 15:35:09 435.822 SSB
AO-27 22 Jul 15:44:19 15:48:10 20° 269° (W) 15:52:02 436.795 MHz FM
Uribyol 2 22 Jul 15:48:45 15:52:16 18° 271° (W) 15:55:49 436.500 FM
KITSAT 1 22 Jul 15:59:54 16:07:56 60° 45° (NE) 16:15:53 435.175 FM
AO-7 22 Jul 16:02:04 16:10:22 73° 65° (ENE) 16:18:43 29.400 - 29.500 MHz
UOSAT-12 22 Jul 16:05:24 16:08:53 21° 113° (ESE) 16:12:25 437.025 FM, 437.400 FM
AO-Echo 22 Jul 16:07:41 16:10:23 14° 274° (W) 16:13:07 ?
Uosat F 22 Jul 16:16:33 16:21:36 78° 73° (ENE) 16:26:40 435.120 FM
RS-15 22 Jul 16:19:01 16:30:08 82° 311° (NW) 16:41:08 29.354 - 29.394 USB, Beacon 29.352 USB
JAS-1B 22 Jul 16:23:14 16:31:02 37° 271° (W) 16:39:48 435.800 - 435.900 CW/SSB
OPAL 22 Jul 16:39:12 16:43:37 30° 97° (E) 16:48:02 ?
SO-50 22 Jul 16:45:13 16:49:12 30° 325° (NW) 16:53:18 436.795 FM
TMSAT-1 22 Jul 16:46:46 16:50:34 20° 270° (W) 16:54:22 436.925 FM
Hamsat 22 Jul 16:54:23 16:56:49 15° 59° (ENE) 16:59:15 145.90 MHz
Saudisat 1A 22 Jul 16:57:49 17:01:46 31° 36° (NE) 17:05:41 436.775 MHz
JAS-2 22 Jul 17:11:11 17:17:58 34° 59° (ENE) 17:24:26 435.800 - 435.900 CW/SSB, 435.910 FM
UOSAT-12 22 Jul 17:44:00 17:48:37 66° 313° (NW) 17:53:20 437.025 FM, 437.400 FM
KITSAT 1 22 Jul 17:55:40 18:03:07 43° 247° (WSW) 18:10:33 435.175 FM
AO-7 22 Jul 17:56:41 18:03:51 31° 266° (W) 18:11:05 29.400 - 29.500 MHz
Uosat F 22 Jul 17:57:52 18:00:59 16° 271° (W) 18:04:08 435.120 FM
OPAL 22 Jul 18:17:54 18:22:38 43° 296° (WNW) 18:27:25 ?
Hamsat 22 Jul 18:28:08 18:32:18 70° 258° (WSW) 18:36:30 145.90 MHz
SO-50 22 Jul 18:28:57 18:31:14 13° 349° (N) 18:33:33 436.795 FM
RS-15 22 Jul 18:34:02 18:44:12 41° 341° (NNW) 18:54:25 29.354 - 29.394 USB, Beacon 29.352 USB
Saudisat 1A 22 Jul 18:37:17 18:41:35 51° 237° (WSW) 18:45:50 436.775 MHz
HO-68 22 Jul 18:43:49 18:47:23 15° 41° (NE) 18:50:58 435.675 MHz FM
STRAND 1 22 Jul 18:51:27 18:54:50 18° 89° (E) 18:58:12 ?
JAS-2 22 Jul 18:54:43 19:02:33 69° 258° (WSW) 19:10:03 435.800 - 435.900 CW/SSB, 435.910 FM
SO-67 22 Jul 18:56:51 19:00:04 38° 71° (ENE) 19:03:20 435.3500 MHz FM
UOSAT-12 22 Jul 19:26:13 19:29:39 20° 335° (NNW) 19:33:07 437.025 FM, 437.400 FM
SO-50 22 Jul 20:11:13 20:13:44 14° 14° (NNE) 20:16:17 436.795 FM
HO-68 22 Jul 20:26:41 20:33:33 52° 63° (ENE) 20:40:27 435.675 MHz FM
STRAND 1 22 Jul 20:29:28 20:34:36 73° 288° (WNW) 20:39:41 ?
SO-67 22 Jul 20:31:01 20:33:20 17° 269° (W) 20:35:40 435.3500 MHz FM
JAS-2 22 Jul 20:44:18 20:48:46 16° 277° (W) 20:53:10 435.800 - 435.900 CW/SSB, 435.910 FM
RS-15 22 Jul 20:49:56 20:59:58 39° 15° (NNE) 21:10:10 29.354 - 29.394 USB, Beacon 29.352 USB
Oscar 11 22 Jul 21:05:04 21:08:42 27° 65° (ENE) 21:12:20 145.825 FM, Beacon 2401.500 USB
FUNcube-1 22 Jul 21:09:08 21:11:14 13° 58° (ENE) 21:13:18 145.950 - 145.970 MHz USB
UOSAT-12 22 Jul 21:09:32 21:11:36 13° 360° (N) 21:13:41 437.025 FM, 437.400 FM
SO-50 22 Jul 21:51:23 21:55:40 34° 37° (NE) 22:00:01 436.795 FM
STRAND 1 22 Jul 22:10:26 22:12:57 14° 308° (NW) 22:15:26 ?
HO-68 22 Jul 22:14:50 22:21:27 39° 263° (W) 22:28:07 435.675 MHz FM
MaSat-1 22 Jul 22:38:33 22:41:38 21° 104° (ESE) 22:45:05 437.345 MHz
Oscar 11 22 Jul 22:40:47 22:44:46 36° 263° (W) 22:48:47 145.825 FM, Beacon 2401.500 USB
FUNcube-1 22 Jul 22:42:39 22:47:03 86° 257° (WSW) 22:51:22 145.950 - 145.970 MHz USB
UOSAT-12 22 Jul 22:50:07 22:53:34 19° 24° (NNE) 22:57:00 437.025 FM, 437.400 FM
RS-15 22 Jul 23:03:24 23:14:25 73° 45° (NE) 23:25:45 29.354 - 29.394 USB, Beacon 29.352 USB
SO-50 22 Jul 23:31:51 23:36:27 51° 237° (WSW) 23:41:05 436.795 FM
MaSat-1 23 Jul 00:14:29 00:18:32 53° 307° (NW) 00:23:16 437.345 MHz
FUNcube-1 23 Jul 00:23:23 00:24:06 10° 274° (W) 00:24:50 145.950 - 145.970 MHz USB
UOSAT-12 23 Jul 00:29:53 00:34:37 64° 46° (NE) 00:39:18 437.025 FM, 437.400 FM
RS-15 23 Jul 01:16:14 01:26:08 41° 250° (WSW) 01:36:22 29.354 - 29.394 USB, Beacon 29.352 USB
Oscar 19 23 Jul 01:22:26 01:24:22 12° 85° (E) 01:26:17 437.125 CW, 437.150 USB
PCSat 23 Jul 01:22:30 01:24:31 12° 102° (ESE) 01:26:33 145.825 MHz
Lituanica SAT-1 23 Jul 01:30:41 01:32:31 23° 148° (SSE) 01:34:21 437.275 MHz beacon
Oscar 16 23 Jul 01:48:07 01:52:01 21° 91° (E) 01:55:54 437.025 USB, Beacon 2401.1428
MaSat-1 23 Jul 01:54:43 01:57:10 14° 331° (NNW) 01:59:44 437.345 MHz
ITAMSAT 1 23 Jul 01:56:50 01:58:33 12° 85° (E) 02:00:14 435.822 SSB
UOSAT-12 23 Jul 02:10:43 02:14:24 23° 246° (WSW) 02:18:03 437.025 FM, 437.400 FM
AO-27 23 Jul 02:12:59 02:16:17 17° 88° (E) 02:19:34 436.795 MHz FM
JAS-1B 23 Jul 02:13:52 02:20:41 21° 80° (E) 02:26:59 435.800 - 435.900 CW/SSB
Uribyol 2 23 Jul 02:16:32 02:20:07 19° 90° (E) 02:23:40 436.500 FM
ISS 23 Jul 02:17:51 02:20:16 19° 140° (SE) 02:22:42 145.800 FM
OPAL 23 Jul 02:22:08 02:25:00 16° 52° (NE) 02:27:53 ?
Sapphire 23 Jul 02:28:01 02:32:58 38° 114° (ESE) 02:37:57 437.095 MHz 1200 baud AX-25 AFSK
AO-Echo 23 Jul 02:29:27 02:33:37 24° 91° (E) 02:37:39 ?
Oscar 19 23 Jul 02:59:23 03:04:34 79° 104° (ESE) 03:09:44 437.125 CW, 437.150 USB
PCSat 23 Jul 03:01:35 03:06:58 71° 121° (ESE) 03:12:23 145.825 MHz
Lituanica SAT-1 23 Jul 03:03:08 03:05:18 60° 348° (NNW) 03:07:29 437.275 MHz beacon
TMSAT-1 23 Jul 03:17:15 03:21:06 20° 90° (E) 03:24:56 436.925 FM
Oscar 16 23 Jul 03:26:42 03:31:47 61° 290° (WNW) 03:36:52 437.025 USB, Beacon 2401.1428
ITAMSAT 1 23 Jul 03:33:43 03:38:57 76° 104° (ESE) 03:44:07 435.822 SSB
Gurwin Techsat 1B 23 Jul 03:36:39 03:41:36 38° 96° (E) 03:46:31 435.225 FM
AO-27 23 Jul 03:51:13 03:56:26 78° 287° (WNW) 04:01:36 436.795 MHz FM
ISS 23 Jul 03:53:16 03:56:37 79° 158° (SSE) 04:00:00 145.800 FM
Uribyol 2 23 Jul 03:54:58 04:00:08 70° 289° (WNW) 04:05:15 436.500 FM
OPAL 23 Jul 03:58:14 04:03:12 85° 71° (ENE) 04:08:11 ?
AO-7 23 Jul 04:00:33 04:05:38 17° 85° (E) 04:10:40 29.400 - 29.500 MHz
JAS-1B 23 Jul 04:03:01 04:12:56 76° 103° (ESE) 04:21:42 435.800 - 435.900 CW/SSB
AO-Echo 23 Jul 04:07:38 04:12:44 54° 291° (WNW) 04:17:39 ?
Sapphire 23 Jul 04:11:10 04:16:21 45° 314° (NW) 04:21:34 437.095 MHz 1200 baud AX-25 AFSK
Uosat F 23 Jul 04:21:10 04:24:29 17° 89° (E) 04:27:46 435.120 FM
Lituanica SAT-1 23 Jul 04:36:17 04:38:24 42° 6° (N) 04:40:32 437.275 MHz beacon
Oscar 19 23 Jul 04:39:50 04:43:20 19° 303° (WNW) 04:46:51 437.125 CW, 437.150 USB
PCSat 23 Jul 04:46:12 04:50:53 29° 323° (NW) 04:55:35 145.825 MHz
TMSAT-1 23 Jul 04:56:16 05:01:33 68° 289° (WNW) 05:06:47 436.925 FM
Oscar 16 23 Jul 05:08:25 05:10:10 12° 309° (NW) 05:11:55 437.025 USB, Beacon 2401.1428
ITAMSAT 1 23 Jul 05:14:15 05:17:54 20° 303° (WNW) 05:21:31 435.822 SSB
Gurwin Techsat 1B 23 Jul 05:16:43 05:21:34 37° 296° (WNW) 05:26:23 435.225 FM
ISS 23 Jul 05:30:11 05:33:30 55° 358° (N) 05:36:50 145.800 FM
AO-27 23 Jul 05:32:20 05:35:08 15° 307° (NW) 05:37:56 436.795 MHz FM
Uribyol 2 23 Jul 05:36:20 05:38:44 13° 308° (NW) 05:41:07 436.500 FM
OPAL 23 Jul 05:40:06 05:42:45 14° 270° (W) 05:45:25 ?
AO-Echo 23 Jul 05:49:17 05:50:22 11° 311° (NW) 05:51:26 ?
AO-7 23 Jul 05:51:32 05:59:56 73° 107° (ESE) 06:08:13 29.400 - 29.500 MHz
JAS-1B 23 Jul 05:53:58 06:02:37 37° 306° (NW) 06:10:37 435.800 - 435.900 CW/SSB
Sapphire 23 Jul 05:57:52 06:01:11 16° 338° (NNW) 06:04:31 437.095 MHz 1200 baud AX-25 AFSK
Uosat F 23 Jul 05:58:47 06:03:49 73° 288° (WNW) 06:08:49 435.120 FM
JAS-2 23 Jul 06:02:50 06:06:14 15° 81° (E) 06:09:26 435.800 - 435.900 CW/SSB, 435.910 FM
Lituanica SAT-1 23 Jul 06:09:12 06:11:22 54° 204° (SSW) 06:13:32 437.275 MHz beacon
Hamsat 23 Jul 06:10:40 06:13:21 16° 89° (E) 06:16:03 145.90 MHz
STRAND 1 23 Jul 06:11:00 06:15:45 39° 65° (ENE) 06:20:31 ?
PCSat 23 Jul 06:33:42 06:36:11 13° 348° (NNW) 06:38:40 145.825 MHz
KITSAT 1 23 Jul 06:35:46 06:41:05 20° 101° (ESE) 06:46:24 435.175 FM
TMSAT-1 23 Jul 06:38:08 06:40:32 13° 309° (NW) 06:42:55 436.925 FM
MaSat-1 23 Jul 06:51:33 06:56:00 27° 43° (NE) 07:00:29 437.345 MHz
ISS 23 Jul 07:07:04 07:10:27 84° 18° (NNE) 07:13:49 145.800 FM
Uosat F 23 Jul 07:39:25 07:41:46 13° 308° (NW) 07:44:06 435.120 FM
AO-7 23 Jul 07:44:55 07:52:09 35° 308° (NW) 07:59:22 29.400 - 29.500 MHz
Sapphire 23 Jul 07:44:59 07:47:01 12° 5° (N) 07:49:03 437.095 MHz 1200 baud AX-25 AFSK
Hamsat 23 Jul 07:45:30 07:49:43 60° 287° (WNW) 07:53:57 145.90 MHz
JAS-1B 23 Jul 07:45:56 07:50:16 14° 330° (NNW) 07:54:30 435.800 - 435.900 CW/SSB
JAS-2 23 Jul 07:46:02 07:52:37 83° 104° (ESE) 07:58:21 435.800 - 435.900 CW/SSB, 435.910 FM
SO-67 23 Jul 07:49:46 07:52:45 26° 95° (E) 07:55:43 435.3500 MHz FM
STRAND 1 23 Jul 07:50:21 07:55:00 34° 264° (W) 07:59:41 ?
PCSat 23 Jul 08:19:22 08:22:04 14° 15° (NNE) 08:24:47 145.825 MHz
KITSAT 1 23 Jul 08:27:08 08:35:13 77° 123° (ESE) 08:43:20 435.175 FM
MaSat-1 23 Jul 08:28:35 08:33:55 72° 243° (WSW) 08:39:07 437.345 MHz
ISS 23 Jul 08:44:05 08:46:56 25° 217° (SW) 08:49:46 145.800 FM
Saudisat 1A 23 Jul 08:49:22 08:51:52 15° 111° (ESE) 08:54:21 436.775 MHz
SO-67 23 Jul 09:22:53 09:25:47 25° 293° (WNW) 09:28:39 435.3500 MHz FM
Sapphire 23 Jul 09:28:24 09:32:36 22° 31° (NNE) 09:36:46 437.095 MHz 1200 baud AX-25 AFSK
JAS-2 23 Jul 09:32:00 09:36:50 22° 308° (NW) 09:41:17 435.800 - 435.900 CW/SSB, 435.910 FM
HO-68 23 Jul 09:37:15 09:43:42 35° 95° (E) 09:50:05 435.675 MHz FM
AO-7 23 Jul 09:39:38 09:42:29 12° 333° (NNW) 09:45:19 29.400 - 29.500 MHz
